sat.trackr.live / text

‹ back to catalog

YAM-16

NORAD 68992 · 2026-100N

PAYLOAD ACTIVE UNKNOWN

§ Identity

Operator
Country
US
Launch date
2026-05-03
Launch site
AFWTR
Launch vehicle
Mass (kg)
RCS (m²)

External: N2YO · Heavens-Above · Gunter

§ Orbital elements

Epoch: 2026-09-20T03:27:35.824032Z

Period
96.54 min
Inclination
97.7234°
Eccentricity
0.0003259
Mean motion
14.91669207 rev/d
Perigee alt
590.5 km
Apogee alt
595.0 km
Semi-major
6,970.9 km
B*
9.9843e-5
RAAN
158.7215°
Arg perigee
161.8477°
Mean anomaly
198.2859°
Rev number
2,085

§ Raw data

YAM-161 68992U 26100N   26263.14416463  .00000948  00000+0  99843-4 0  99982 68992  97.7234 158.7215 0003259 161.8477 198.2859 14.91669207 20852

JSON: /api/v1/satellites/68992 · /tle

For live sub-satellite position, see the globe view (requires WebGL).

§ Visibility from observer

Set your observer location to see the next 7 days of passes ≥ 10°. The values pass through the URL so the page stays shareable.

No JS? Fill the form by hand. The geolocation button needs JavaScript.

§ Radio — SatNOGS DB

ModeDescriptionDownlinkUplink
UNKNOWN S-band telemetry 2.255 GHz

1 transmitter · refreshed weekly from db.satnogs.org